STARLINK-1921, 46752

Orbit data source: Space-Track

STARLINK-1921, 46752 is a payload satellite owned by SpaceX/Seattle (US) in LEO that was launched on Sat, 24 Oct 2020 UTC via an FALCON 9 launch vehicle from the Air Force Eastern Test Range (AFETR). Payloads include a variety of satellites, spacecraft, and rockets equipped with specific instruments for various scientific and technological missions. These include communications satellites like Starlink; space stations such as the ISS; scientific satellites like the Hubble; Earth observation satellites from companies like Planet Labs, Umbra, and HawkEye 360; GPS; miniature CubeSats for education and research; and military/defense satellites.

Loading next visibility...
STARLINK-1921 details
Identifier
46752, 2020-074P
Orbit
LEO
Last TLE update10 hours ago
Origin
Flag of USSpaceX/Seattle (US)
ManufacturerSpaceX/Seattle
MissionPartially operational Commercial Communications
Bus & MotorSTARLINK, Unknown motor
Mass260 kg wet, ~248 kg dry
Launch date (UTC)
2020-10-24 (4 years ago)
Launch vehicle
FALCON 9
Launch site
Air Force Eastern Test Range (AFETR)
Object type
Payload
Rocket body
Debris
Shape & HBRBox + 1 Pan, 8.86 m
Radar Cross Section13.562 m², Large (>1 m²)

Expand to show TLE details & history

TLE from 10 hours ago
0 STARLINK-1921
1 46752U 20074P   24347.91667824  .01077916  00000-0  13778-1 0  9998
2 46752  53.0540 182.7991 0000899  80.5194  77.6890 15.56026780  5881
Epoch: 2024-12-12T22:00Z
Definitive object data (Epoch: 2024-12-12T22:00:00.999Z)
Latitude17.27829°
Longitude-62.74698°
Altitude399.319 km
Speed7.674 km/s
True Right ascension23h 17m 23s
True Declination17° 10' 33"
Sunlit
Object was in daylight at TLE epoch
Visualization TLE readout
Latitude27.83305°
Longitude151.88975°
Altitude397.584 km
Speed7.676 km/s
Apparent Right ascension15h 52m 12s
Apparent Declination-6° 11' 15"
Sunlit
Object is in daylight
Visualization observer readout
Local Sidereal Time06:45:21
Azimuth60.754° ENE
Elevation-38.624°
Doppler factor1
Orbital elements
Apogee altitude400.055 km
Perigee altitude398.837 km
Semi-major axis6,777.583 km
Eccentricity0.0000899
Inclination53.054°
RAAN182.7991°
Arg. of periapsis80.5194°
True anomaly77.69907°
Mean anomaly77.689°
Eccentric anomaly77.69403°
Mean motion3.88983 °/min
BSTAR0.013778
Orbital period92.55 mins
Loading maneuver chart data...

STARLINK-1921 Visibility forecast

Observer location: undefined°, undefined

Span
Click to sort rows by Start time (UTC) header in descending order
Start Az.
Max El. time (UTC)
Max El. Az.
Max El.
End time (UTC)
End Az.
5 mins2024-12-13 15:59:47.337Z230.268° WSW2024-12-13 16:02:47.337Z42.919° NE43.313°2024-12-13 16:04:47.337Z49.337° ENE
4 mins2024-12-13 22:28:47.337Z323.898° NNW2024-12-13 22:29:47.337Z350.272° N38.998°2024-12-13 22:32:47.337Z118.945° SE
|